Flag for Honduras Weather past 2 weeks in Tegucigalpa, Honduras

Now
77 °F

Passing clouds.


Feels Like: 79 °F
Forecast: N/A
Wind: 9 mph from North

Location: Tegucigalpa Airport

Current Time: Dec 26, 2014 at 4:22:42 PM

Latest Report: Dec 26, 2014 at 4:00 PM


Visibility: N/A

Pressure: 30.07 "Hg

Humidity: 47%

Dew point: 55 °F

Location of TegucigalpaLocation

Historic Weather in Tegucigalpa — Graph

°F

Tegucigalpa temperature yesterday

Maximum temperature yesterday: 79 °F (at 3:00 PM)
Minimum temperature yesterday: 66 °F (at 5:00 AM)
Average temperature yesterday: 71 °F

Past Weeks' High & Low Weather Summary

 TemperatureHumidityPressure
High86 °F (Dec 24, 1:00 PM)100% (Dec 11, 9:00 PM)30.24 "Hg (Dec 11, 9:00 PM)
Low54 °F (Dec 19, 5:00 AM)40% (Dec 21, 1:00 PM)29.92 "Hg (Dec 22, 3:00 PM)
Average68 °F78%30.10 "Hg
* Reported Dec 11 3:00 PM — Dec 26 3:00 PM, Tegucigalpa, Weather by CustomWeather, © 2014

Note: Actual official high and low records may vary slightly from our data, if they occured in-between our weather recording intervals... More about our weather records

Advertising

Tegucigalpa weather history for previous 24 hours

 ConditionsComfort  
Time TempWeatherWind HumidityBarometerVisibility
3:00 PM
Dec 26
75 °FScattered clouds.9 mph54%30.07 "HgN/A
2:00 PM73 °FPartly sunny.9 mph57%30.09 "HgN/A
1:00 PM72 °FPartly sunny.12 mph65%30.09 "HgN/A
12:00 PM73 °FPartly sunny.9 mph61%30.12 "HgN/A
11:00 AM75 °FBroken clouds.9 mph61%30.15 "HgN/A
10:00 AM70 °FPartly sunny.12 mph69%30.18 "HgN/A
9:00 AM70 °FPassing clouds.12 mph69%30.18 "HgN/A
8:00 AM68 °FPassing clouds.12 mph83%30.15 "HgN/A
7:00 AM64 °FPassing clouds.9 mph94%30.15 "HgN/A
6:00 AM64 °FPassing clouds.12 mph94%30.12 "HgN/A
5:00 AM64 °FPassing clouds.9 mph94%30.09 "HgN/A
4:00 AM64 °FPassing clouds.5 mph94%30.09 "HgN/A
3:00 AM64 °FPassing clouds.12 mph100%30.09 "HgN/A
2:00 AM64 °FPassing clouds.7 mph94%30.09 "HgN/A
1:00 AM66 °FPassing clouds.9 mph94%30.09 "HgN/A
12:00 AM66 °FPassing clouds.12 mph94%30.12 "HgN/A
11:00 PM
Dec 25
66 °FPassing clouds.6 mph94%30.12 "HgN/A
10:00 PM66 °FPassing clouds.9 mph94%30.15 "HgN/A
9:00 PM66 °FPassing clouds.12 mph100%30.15 "HgN/A
8:00 PM66 °FPassing clouds.12 mph100%30.12 "HgN/A
7:00 PM66 °FPassing clouds.14 mph100%30.09 "HgN/A
6:00 PM72 °FPassing clouds.12 mph78%30.07 "Hg6 mi
5:00 PM73 °FBroken clouds.12 mph69%30.07 "HgN/A
4:00 PM77 °FBroken clouds.15 mph65%30.07 "HgN/A
Weather by CustomWeather, © 2014

See weather overviewHow to use our weather pages